| time (UTC) | temp F | wind direction | speed MPH | gust MPH | rain 1hr in | rain 24hr in | rain mn in | humidity % | barometer mb |
| 20260902202018 | 73 | 135 | 3.0 | 6.0 | 0.00 | 0.00 | 0.00 | 70 | 1021.6 |
| 20260902201018 | 73 | 68 | 4.0 | 7.0 | 0.00 | 0.00 | 0.00 | 69 | 1021.9 |
| 20260902200018 | 73 | 68 | 2.0 | 4.0 | 0.00 | 0.00 | 0.00 | 68 | 1021.8 |
| 20260902195018 | 73 | 90 | 2.0 | 6.0 | 0.00 | 0.00 | 0.00 | 69 | 1021.9 |
| 20260902194139 | 73 | 90 | 3.0 | 6.0 | 0.00 | 0.00 | 0.00 | 69 | 1021.9 |
| 20260902193018 | 74 | 68 | 4.0 | 7.0 | 0.00 | 0.00 | 0.00 | 69 | 1021.8 |
| 20260902192017 | 74 | 68 | 4.0 | 8.0 | 0.00 | 0.00 | 0.00 | 68 | 1021.9 |
| 20260902191018 | 74 | 68 | 2.0 | 6.0 | 0.00 | 0.00 | 0.00 | 69 | 1021.9 |
| 20260902190018 | 75 | 90 | 4.0 | 8.0 | 0.00 | 0.04 | 0.00 | 67 | 1022.0 |
| 20260902185037 | 75 | 68 | 3.0 | 7.0 | 0.00 | 0.04 | 0.00 | 68 | 1022.0 |
| 20260902184118 | 74 | 90 | 2.0 | 6.0 | 0.00 | 0.04 | 0.00 | 70 | 1022.0 |
| 20260902183038 | 74 | 68 | 3.0 | 8.0 | 0.00 | 0.04 | 0.00 | 69 | 1022.0 |
| 20260902182018 | 74 | 135 | 1.0 | 4.0 | 0.00 | 0.04 | 0.00 | 71 | 1022.1 |
| 20260902181019 | 74 | 68 | 2.0 | 5.0 | 0.00 | 0.04 | 0.00 | 70 | 1022.1 |
| 20260902180019 | 74 | 90 | 3.0 | 6.0 | 0.00 | 0.25 | 0.00 | 70 | 1022.1 |
| 20260902175021 | 74 | 68 | 4.0 | 7.0 | 0.00 | 0.25 | 0.00 | 67 | 1022.1 |
| 20260902174020 | 74 | 68 | 4.0 | 9.0 | 0.00 | 0.25 | 0.00 | 68 | 1021.9 |
| 20260902173019 | 74 | 68 | 4.0 | 8.0 | 0.00 | 0.25 | 0.00 | 69 | 1021.9 |
| 20260902172019 | 73 | 90 | 4.0 | 8.0 | 0.00 | 0.25 | 0.00 | 69 | 1021.9 |
| 20260902171019 | 73 | 68 | 3.0 | 6.0 | 0.00 | 0.25 | 0.00 | 69 | 1022.2 |
| 20260902170019 | 73 | 90 | 3.0 | 10.0 | 0.00 | 0.26 | 0.00 | 71 | 1022.2 |
| 20260902165040 | 73 | 68 | 3.0 | 9.0 | 0.00 | 0.26 | 0.00 | 71 | 1022.4 |
| 20260902164019 | 73 | 68 | 2.0 | 4.0 | 0.00 | 0.26 | 0.00 | 69 | 1022.5 |
| 20260902163020 | 74 | 90 | 2.0 | 4.0 | 0.00 | 0.26 | 0.00 | 71 | 1022.7 |
| 20260902162019 | 73 | 68 | 2.0 | 8.0 | 0.00 | 0.26 | 0.00 | 71 | 1022.7 |
| 20260902161020 | 72 | 90 | 4.0 | 9.0 | 0.00 | 0.26 | 0.00 | 72 | 1022.7 |
| 20260902160039 | 72 | 68 | 3.0 | 8.0 | 0.00 | 0.26 | 0.00 | 73 | 1022.9 |
| 20260902155019 | 71 | 90 | 3.0 | 5.0 | 0.00 | 0.26 | 0.00 | 75 | 1023.0 |
| 20260902154019 | 71 | 68 | 4.0 | 9.0 | 0.00 | 0.26 | 0.00 | 75 | 1023.3 |
| 20260902153019 | 71 | 68 | 3.0 | 6.0 | 0.00 | 0.26 | 0.00 | 75 | 1023.5 |
| 20260902152019 | 71 | 90 | 3.0 | 8.0 | 0.00 | 0.26 | 0.00 | 77 | 1023.5 |
| 20260902151039 | 71 | 68 | 3.0 | 7.0 | 0.00 | 0.26 | 0.00 | 77 | 1023.5 |
| 20260902150019 | 70 | 68 | 3.0 | 6.0 | 0.00 | 0.26 | 0.00 | 78 | 1023.5 |
| 20260902145019 | 70 | 315 | 2.0 | 6.0 | 0.00 | 0.26 | 0.00 | 80 | 1023.6 |
| 20260902144019 | 71 | 90 | 2.0 | 8.0 | 0.00 | 0.26 | 0.00 | 83 | 1023.4 |
| 20260902143019 | 69 | 68 | 3.0 | 8.0 | 0.00 | 0.26 | 0.00 | 84 | 1023.4 |
| 20260902142019 | 68 | 203 | 2.0 | 5.0 | 0.00 | 0.26 | 0.00 | 89 | 1023.3 |
| 20260902141019 | 67 | 68 | 1.0 | 2.0 | 0.00 | 0.26 | 0.00 | 92 | 1023.0 |
| 20260902140039 | 66 | 68 | 2.0 | 5.0 | 0.00 | 0.28 | 0.00 | 95 | 1022.9 |
| 20260902135019 | 65 | 68 | 1.0 | 5.0 | 0.00 | 0.28 | 0.00 | 96 | 1022.9 |
| 20260902134019 | 65 | 68 | 2.0 | 4.0 | 0.00 | 0.28 | 0.00 | 96 | 1022.8 |
| 20260902133039 | 65 | 68 | 3.0 | 5.0 | 0.00 | 0.28 | 0.00 | 96 | 1022.8 |
| 20260902132019 | 64 | 68 | 2.0 | 5.0 | 0.00 | 0.28 | 0.00 | 96 | 1022.7 |
| 20260902131019 | 64 | 45 | 2.0 | 4.0 | 0.00 | 0.28 | 0.00 | 97 | 1022.5 |
| 20260902130039 | 64 | 68 | 1.0 | 2.0 | 0.00 | 0.38 | 0.00 | 97 | 1022.8 |
| 20260902125019 | 63 | 113 | 1.0 | 3.0 | 0.00 | 0.38 | 0.00 | 97 | 1022.9 |
| 20260902124019 | 63 | 90 | 1.0 | 2.0 | 0.00 | 0.38 | 0.00 | 97 | 1023.0 |
| 20260902123019 | 63 | 0.0 | 0.0 | 0.00 | 0.38 | 0.00 | 97 | 1023.1 | |
| 20260902122019 | 62 | 0.0 | 0.0 | 0.00 | 0.38 | 0.00 | 97 | 1023.0 | |
| 20260902121059 | 62 | 0.0 | 0.0 | 0.00 | 0.38 | 0.00 | 97 | 1022.9 | |
| 20260902120019 | 62 | 0.0 | 0.0 | 0.00 | 0.38 | 0.00 | 96 | 1023.1 | |
| 20260902115019 | 62 | 0.0 | 0.0 | 0.00 | 0.38 | 0.00 | 96 | 1023.2 | |
| 20260902114019 | 62 | 0.0 | 0.0 | 0.00 | 0.38 | 0.00 | 96 | 1023.3 | |
| 20260902113019 | 61 | 0.0 | 0.0 | 0.00 | 0.38 | 0.00 | 96 | 1023.2 | |
| 20260902112019 | 61 | 0.0 | 0.0 | 0.00 | 0.38 | 0.00 | 96 | 1023.2 | |
| 20260902111019 | 61 | 0.0 | 0.0 | 0.00 | 0.38 | 0.00 | 96 | 1023.2 | |
| 20260902110019 | 61 | 0.0 | 0.0 | 0.00 | 0.38 | 0.00 | 96 | 1023.0 | |
| 20260902105039 | 61 | 0.0 | 0.0 | 0.00 | 0.38 | 0.00 | 96 | 1023.0 | |
| 20260902104019 | 61 | 0.0 | 0.0 | 0.00 | 0.38 | 0.00 | 96 | 1022.5 | |
| 20260902103019 | 61 | 0.0 | 0.0 | 0.00 | 0.38 | 0.00 | 96 | 1022.4 | |
| 20260902102019 | 61 | 0.0 | 0.0 | 0.00 | 0.38 | 0.00 | 96 | 1022.4 | |
| 20260902101019 | 61 | 0.0 | 0.0 | 0.00 | 0.38 | 0.00 | 96 | 1022.4 | |
| 20260902100038 | 61 | 0.0 | 0.0 | 0.00 | 0.39 | 0.00 | 96 | 1022.4 | |
| 20260902095019 | 61 | 0.0 | 0.0 | 0.00 | 0.39 | 0.00 | 96 | 1022.2 | |
| 20260902094019 | 61 | 0.0 | 0.0 | 0.00 | 0.39 | 0.00 | 96 | 1022.0 | |
| 20260902093018 | 61 | 0.0 | 0.0 | 0.00 | 0.39 | 0.00 | 96 | 1022.0 | |
| 20260902092019 | 61 | 0.0 | 0.0 | 0.00 | 0.39 | 0.00 | 96 | 1021.4 | |
| 20260902091019 | 60 | 0.0 | 0.0 | 0.00 | 0.39 | 0.00 | 96 | 1021.5 | |
| 20260902090018 | 60 | 0.0 | 0.0 | 0.00 | 0.39 | 0.00 | 96 | 1021.6 | |
| 20260902085019 | 60 | 0.0 | 0.0 | 0.00 | 0.39 | 0.00 | 96 | 1021.6 | |
| 20260902084018 | 60 | 0.0 | 0.0 | 0.00 | 0.39 | 0.00 | 95 | 1021.5 | |
| 20260902083018 | 60 | 0.0 | 0.0 | 0.00 | 0.39 | 0.00 | 95 | 1021.6 | |
| 20260902082018 | 61 | 0.0 | 0.0 | 0.00 | 0.39 | 0.00 | 96 | 1021.4 | |
| 20260902081019 | 61 | 0.0 | 0.0 | 0.00 | 0.39 | 0.00 | 95 | 1021.5 | |
| 20260902080018 | 61 | 0.0 | 0.0 | 0.00 | 0.39 | 0.00 | 96 | 1021.4 | |
| 20260902075019 | 61 | 0.0 | 0.0 | 0.00 | 0.39 | 0.00 | 96 | 1021.5 | |
| 20260902074018 | 61 | 0.0 | 0.0 | 0.00 | 0.39 | 0.00 | 95 | 1021.5 | |
| 20260902073018 | 61 | 0.0 | 0.0 | 0.00 | 0.39 | 0.00 | 96 | 1021.7 | |
| 20260902072039 | 61 | 0.0 | 0.0 | 0.00 | 0.39 | 0.00 | 95 | 1021.8 | |
| 20260902071038 | 61 | 0.0 | 0.0 | 0.00 | 0.39 | 0.00 | 95 | 1021.5 | |
| 20260902070018 | 61 | 0.0 | 0.0 | 0.00 | 0.39 | 0.00 | 95 | 1021.5 | |
| 20260902065018 | 61 | 0.0 | 0.0 | 0.00 | 0.39 | 0.00 | 95 | 1021.5 | |
| 20260902064038 | 61 | 0.0 | 0.0 | 0.00 | 0.39 | 0.00 | 95 | 1021.5 | |
| 20260902063018 | 61 | 0.0 | 0.0 | 0.00 | 0.39 | 0.00 | 95 | 1021.5 | |
| 20260902062018 | 61 | 0.0 | 0.0 | 0.00 | 0.39 | 0.00 | 95 | 1021.5 | |
| 20260902061018 | 61 | 0.0 | 0.0 | 0.00 | 0.39 | 0.00 | 95 | 1021.5 | |
| 20260902060018 | 61 | 0.0 | 0.0 | 0.00 | 0.39 | 0.00 | 95 | 1021.4 | |
| 20260902055018 | 61 | 0.0 | 0.0 | 0.00 | 0.39 | 0.00 | 95 | 1021.4 | |
| 20260902054038 | 61 | 0.0 | 0.0 | 0.00 | 0.39 | 0.00 | 95 | 1021.4 | |
| 20260902053018 | 61 | 0.0 | 0.0 | 0.00 | 0.39 | 0.00 | 95 | 1021.5 | |
| 20260902052039 | 61 | 0.0 | 0.0 | 0.00 | 0.39 | 0.00 | 95 | 1021.3 | |
| 20260902051018 | 61 | 0.0 | 0.0 | 0.00 | 0.39 | 0.00 | 95 | 1021.2 | |
| 20260902050018 | 61 | 0.0 | 0.0 | 0.00 | 0.39 | 0.00 | 95 | 1021.2 | |
| 20260902045019 | 61 | 0.0 | 0.0 | 0.00 | 0.39 | 0.00 | 95 | 1021.1 | |
| 20260902044018 | 61 | 0.0 | 0.0 | 0.00 | 0.39 | 0.00 | 95 | 1021.0 | |
| 20260902043018 | 60 | 0.0 | 0.0 | 0.00 | 0.39 | 0.00 | 95 | 1020.9 | |
| 20260902042038 | 60 | 0.0 | 0.0 | 0.00 | 0.39 | 0.00 | 95 | 1020.9 | |
| 20260902041018 | 61 | 0.0 | 0.0 | 0.00 | 0.39 | 0.00 | 94 | 1020.7 | |
| 20260902040018 | 61 | 0.0 | 0.0 | 0.00 | 0.39 | 0.39 | 94 | 1020.6 | |
| 20260902035018 | 61 | 0.0 | 0.0 | 0.00 | 0.39 | 0.39 | 95 | 1020.4 | |
| 20260902034019 | 61 | 0.0 | 0.0 | 0.00 | 0.39 | 0.39 | 94 | 1020.3 | |
| 20260902033018 | 61 | 68 | 1.0 | 2.0 | 0.00 | 0.39 | 0.39 | 94 | 1020.1 |
| 20260902032018 | 61 | 0.0 | 0.0 | 0.00 | 0.39 | 0.39 | 94 | 1020.1 | |
| 20260902031019 | 61 | 0.0 | 0.0 | 0.00 | 0.39 | 0.39 | 94 | 1020.2 | |
| 20260902030018 | 61 | 0.0 | 0.0 | 0.00 | 0.39 | 0.39 | 94 | 1020.4 | |
| 20260902025019 | 61 | 0.0 | 0.0 | 0.00 | 0.39 | 0.39 | 94 | 1020.3 | |
| 20260902024039 | 61 | 0.0 | 0.0 | 0.00 | 0.39 | 0.39 | 94 | 1020.4 | |
| 20260902023018 | 61 | 0.0 | 0.0 | 0.00 | 0.39 | 0.39 | 94 | 1020.3 | |
| 20260902022018 | 61 | 0.0 | 0.0 | 0.00 | 0.39 | 0.39 | 94 | 1020.3 | |
| 20260902021018 | 61 | 0.0 | 0.0 | 0.00 | 0.39 | 0.39 | 93 | 1020.5 | |
| 20260902020018 | 61 | 0.0 | 0.0 | 0.00 | 0.39 | 0.39 | 93 | 1020.4 | |
| 20260902015019 | 61 | 0.0 | 0.0 | 0.00 | 0.39 | 0.39 | 93 | 1020.4 | |
| 20260902014018 | 61 | 0.0 | 0.0 | 0.00 | 0.39 | 0.39 | 93 | 1020.2 | |
| 20260902013018 | 61 | 0.0 | 0.0 | 0.00 | 0.39 | 0.39 | 93 | 1020.0 | |
| 20260902012018 | 61 | 0.0 | 0.0 | 0.00 | 0.39 | 0.39 | 93 | 1020.0 | |
| 20260902011018 | 61 | 0.0 | 0.0 | 0.00 | 0.39 | 0.39 | 93 | 1020.5 | |
| 20260902010018 | 61 | 0.0 | 0.0 | 0.00 | 0.39 | 0.39 | 93 | 1020.3 | |
| 20260902005018 | 61 | 0.0 | 0.0 | 0.00 | 0.39 | 0.39 | 93 | 1020.0 | |
| 20260902004018 | 61 | 0.0 | 0.0 | 0.00 | 0.39 | 0.39 | 93 | 1019.9 | |
| 20260902003038 | 61 | 0.0 | 0.0 | 0.00 | 0.39 | 0.39 | 93 | 1019.9 | |
| 20260902002018 | 61 | 0.0 | 0.0 | 0.00 | 0.39 | 0.39 | 93 | 1019.9 | |
| 20260902001018 | 61 | 0.0 | 0.0 | 0.00 | 0.39 | 0.39 | 92 | 1019.9 | |
| 20260902000018 | 61 | 0.0 | 0.0 | 0.00 | 0.39 | 0.39 | 92 | 1019.7 | |
| 20260901235018 | 61 | 0.0 | 0.0 | 0.00 | 0.39 | 0.39 | 92 | 1019.7 | |
| 20260901234018 | 61 | 0.0 | 0.0 | 0.00 | 0.39 | 0.39 | 92 | 1019.7 | |
| 20260901233018 | 62 | 0.0 | 0.0 | 0.00 | 0.39 | 0.39 | 92 | 1019.9 | |
| 20260901232019 | 61 | 0.0 | 0.0 | 0.00 | 0.39 | 0.39 | 92 | 1019.8 | |
| 20260901231018 | 61 | 0.0 | 1.0 | 0.00 | 0.39 | 0.39 | 92 | 1019.8 | |
| 20260901230018 | 62 | 90 | 1.0 | 3.0 | 0.00 | 0.39 | 0.39 | 92 | 1019.6 |
| 20260901225018 | 62 | 0.0 | 2.0 | 0.00 | 0.39 | 0.39 | 92 | 1019.7 | |
| 20260901224018 | 62 | 45 | 1.0 | 4.0 | 0.00 | 0.39 | 0.39 | 92 | 1019.4 |
| 20260901223038 | 62 | 68 | 1.0 | 3.0 | 0.00 | 0.39 | 0.39 | 92 | 1019.4 |
| 20260901222018 | 62 | 68 | 1.0 | 4.0 | 0.00 | 0.39 | 0.39 | 92 | 1019.5 |
| 20260901221018 | 62 | 68 | 2.0 | 5.0 | 0.00 | 0.39 | 0.39 | 92 | 1019.5 |
| 20260901220018 | 62 | 68 | 2.0 | 5.0 | 0.00 | 0.39 | 0.39 | 92 | 1019.4 |
| 20260901215018 | 62 | 0 | 1.0 | 4.0 | 0.00 | 0.39 | 0.39 | 92 | 1019.4 |
| 20260901214018 | 62 | 68 | 2.0 | 6.0 | 0.00 | 0.39 | 0.39 | 92 | 1019.5 |
| 20260901213018 | 63 | 23 | 3.0 | 8.0 | 0.00 | 0.39 | 0.39 | 92 | 1019.4 |
| 20260901212058 | 63 | 68 | 2.0 | 5.0 | 0.00 | 0.39 | 0.39 | 92 | 1019.2 |
| 20260901211017 | 63 | 68 | 2.0 | 3.0 | 0.00 | 0.39 | 0.39 | 92 | 1019.2 |
| 20260901210018 | 63 | 68 | 2.0 | 4.0 | 0.00 | 0.39 | 0.39 | 93 | 1019.2 |
| 20260901205038 | 63 | 45 | 2.0 | 6.0 | 0.00 | 0.39 | 0.39 | 93 | 1019.1 |
| 20260901204038 | 63 | 68 | 1.0 | 5.0 | 0.00 | 0.39 | 0.39 | 93 | 1019.0 |
| 20260901203018 | 64 | 68 | 2.0 | 4.0 | 0.00 | 0.39 | 0.39 | 93 | 1018.9 |